Total_Precipitation_Accumulation
3.19 3.16 3.07 3.06 2.77 2.87 3.05 3.42 3.32 3.50 3.46 3.06 2.62 2.46 2.49 2.56 2.49 2.58 2.87 2.88 2.71 2.80 3.60 4.06 3.91 3.56 3.07 2.56 2.28 2.13 2.04 1.83 1.61 1.35 1.27 1.39 1.41 1.40 1.30 1.10 0.96 0.82 0.66
3.51 3.50 3.39 3.32 2.99 2.89 3.18 3.52 3.51 3.99 3.87 3.69 3.15 2.83 2.67 2.65 2.62 2.74 3.04 3.22 3.15 3.12 3.59 4.17 4.39 4.28 3.83 3.24 2.74 2.42 2.34 2.26 2.00 1.57 1.39 1.50 1.57 1.51 1.47 1.30 1.08 0.92 0.72
3.68 3.57 3.50 3.33 3.26 3.22 3.40 3.48 3.60 4.01 3.76 3.70 3.53 3.21 3.00 2.80 2.66 2.88 3.25 3.57 3.22 3.16 3.54 4.04 4.46 4.45 4.26 3.93 3.37 2.95 2.62 2.40 2.22 1.88 1.57 1.43 1.48 1.46 1.41 1.35 1.19 0.96 0.72
3.71 3.76 3.50 3.26 3.39 3.38 3.59 3.88 3.87 3.95 4.06 3.98 3.78 3.46 3.32 3.21 2.78 2.82 2.98 3.16 3.38 2.94 3.35 4.03 4.34 4.09 4.12 4.29 4.22 3.93 3.42 2.82 2.52 2.20 1.87 1.67 1.61 1.52 1.39 1.32 1.22 1.02 0.75
3.51 3.81 3.61 3.58 3.58 3.79 3.71 3.42 3.97 4.17 4.16 4.06 3.52 3.47 3.11 3.07 2.99 2.74 2.85 2.93 3.15 3.11 3.17 3.33 3.95 3.76 3.96 4.47 4.75 4.84 4.52 3.87 3.16 2.69 2.35 2.09 1.97 1.72 1.49 1.35 1.22 1.01 0.78
3.39 3.68 3.46 3.44 3.66 4.04 4.13 4.03 4.27 4.20 4.05 4.11 3.46 3.26 2.95 2.67 2.68 2.63 2.45 2.72 2.81 2.55 2.76 3.00 3.41 2.94 3.19 3.67 4.18 4.76 5.07 4.99 4.27 3.48 3.10 2.84 2.67 2.22 1.72 1.45 1.24 1.07 0.89
3.22 3.59 3.28 3.69 3.77 3.97 4.13 4.10 4.32 4.25 4.03 4.16 4.10 3.52 2.90 2.51 2.45 2.28 2.29 2.50 2.43 2.50 2.83 3.27 3.53 3.42 3.02 2.96 3.21 3.89 4.81 5.38 5.14 4.41 3.95 3.66 3.42 2.93 2.19 1.76 1.38 1.12 0.98
2.99 3.12 3.66 3.64 3.78 3.99 4.03 4.00 4.08 3.88 3.62 3.97 4.25 4.08 3.37 2.93 2.51 2.06 2.28 2.29 2.43 2.72 2.75 2.80 3.23 3.58 3.38 3.39 2.92 2.89 4.01 5.13 5.62 5.38 5.01 4.61 4.19 3.42 2.69 2.20 1.70 1.32 1.15
3.10 3.23 3.49 3.58 3.66 3.56 3.80 3.99 3.80 3.74 3.63 3.69 3.94 4.15 3.66 3.08 2.61 2.30 2.16 2.19 2.55 2.81 2.67 2.61 2.57 2.83 2.91 3.36 3.51 2.98 3.14 3.58 4.42 5.48 5.87 5.66 4.84 3.69 2.95 2.51 2.13 1.67 1.32
2.89 3.01 3.17 3.36 3.52 3.45 3.61 3.49 3.52 3.66 3.68 3.52 3.68 3.63 3.51 3.30 3.14 2.72 2.32 2.19 2.39 2.49 2.47 2.28 2.29 2.61 2.79 3.27 3.43 2.84 2.51 2.46 2.82 3.99 5.14 5.37 4.89 3.90 3.19 2.92 2.84 2.46 1.84
2.72 2.71 2.92 3.16 3.32 3.21 3.17 3.37 3.66 3.59 3.48 3.44 3.57 3.62 3.79 3.61 3.28 3.12 2.74 2.48 2.32 2.07 2.15 2.19 2.19 2.31 2.56 2.96 3.14 2.58 2.43 2.22 2.13 2.52 3.30 3.91 4.16 3.86 3.40 3.30 3.53 3.52 3.04
2.67 2.60 2.70 3.03 3.14 3.07 3.02 3.12 3.21 3.25 3.28 3.44 3.44 3.35 3.57 3.59 3.43 3.46 3.06 2.71 2.43 1.98 1.90 2.00 2.11 2.24 2.38 2.57 2.31 2.17 2.26 2.08 1.94 1.95 2.22 2.68 3.16 3.39 3.30 3.40 3.71 3.97 3.98
2.60 2.58 2.57 2.72 2.66 2.65 2.75 2.97 3.00 2.93 2.98 3.11 3.08 3.11 3.10 3.02 3.12 3.24 3.19 2.76 2.40 1.92 1.90 1.83 1.86 2.07 2.04 2.34 2.39 2.25 2.09 1.96 1.82 1.79 1.87 1.97 2.25 2.54 2.81 3.05 3.47 3.88 4.12
2.55 2.50 2.43 2.37 2.30 2.33 2.39 2.71 2.81 2.75 2.82 2.82 2.75 2.98 2.83 2.68 2.85 2.88 2.97 3.07 2.80 2.46 2.39 2.18 1.83 1.83 2.00 2.19 2.29 2.22 1.95 1.94 1.76 1.69 1.68 1.68 1.78 1.93 2.11 2.37 2.66 2.89 3.17
2.19 2.25 2.24 2.16 2.10 2.20 2.33 2.43 2.43 2.43 2.54 2.51 2.58 2.65 2.48 2.49 2.60 2.64 2.80 3.04 3.09 2.87 2.76 2.58 2.16 1.91 1.96 2.15 2.41 2.15 2.05 1.93 1.75 1.64 1.55 1.51 1.52 1.57 1.64 1.76 1.96 2.13 2.24
2.19 2.12 2.06 1.98 1.98 2.02 2.08 2.21 2.17 2.23 2.23 2.22 2.40 2.46 2.42 2.39 2.53 2.50 2.55 2.76 2.96 3.01 2.82 2.57 2.32 2.01 2.04 1.95 2.17 2.11 2.09 2.01 1.78 1.59 1.43 1.34 1.33 1.38 1.47 1.53 1.60 1.72 1.76
2.27 2.24 2.16 2.10 1.96 1.89 1.95 2.02 1.92 2.04 2.06 2.07 2.06 2.12 2.15 2.29 2.44 2.42 2.48 2.54 2.78 3.07 2.97 2.77 2.56 2.38 2.26 2.17 2.01 1.96 1.89 1.79 1.61 1.48 1.28 1.18 1.19 1.23 1.27 1.34 1.42 1.52 1.59
1.93 1.95 1.91 1.90 1.90 1.97 2.06 1.97 1.91 1.93 2.01 1.97 2.03 2.18 2.08 2.23 2.39 2.34 2.45 2.46 2.63 2.95 3.07 3.19 3.17 2.87 2.58 2.38 2.29 2.11 1.76 1.61 1.62 1.55 1.38 1.23 1.15 1.14 1.13 1.15 1.23 1.36 1.47
1.89 1.86 1.85 1.83 1.85 2.03 2.16 2.11 2.08 2.14 2.17 2.05 2.12 2.15 2.03 2.15 2.22 2.23 2.30 2.36 2.53 2.75 2.99 2.97 3.03 2.92 2.77 2.49 2.57 2.30 2.00 1.93 1.58 1.52 1.44 1.27 1.19 1.15 1.12 1.14 1.18 1.22 1.29
1.95 2.00 1.98 1.92 1.94 1.90 1.94 2.09 2.21 2.21 2.17 2.08 2.07 1.98 1.85 1.85 1.94 2.09 2.09 2.22 2.43 2.63 2.80 2.76 2.81 2.90 2.96 2.95 2.95 2.72 2.53 2.29 1.94 1.56 1.57 1.40 1.33 1.22 1.11 1.06 1.07 1.13 1.23
1.84 2.03 2.05 2.01 2.00 1.91 1.81 1.91 2.02 1.95 1.99 1.97 1.91 1.74 1.54 1.56 1.65 1.72 1.67 1.99 2.29 2.43 2.51 2.58 2.66 2.84 2.97 3.18 3.01 2.88 2.77 2.69 2.39 2.01 1.95 1.61 1.48 1.28 1.12 1.08 1.08 1.07 1.10
1.92 1.98 1.95 1.97 1.89 1.63 1.69 1.65 1.62 1.65 1.71 1.75 1.79 1.75 1.59 1.45 1.38 1.41 1.38 1.54 1.85 2.01 2.20 2.46 2.60 2.80 2.89 2.93 3.11 3.10 3.05 2.88 2.61 2.30 2.29 2.22 2.06 1.89 1.58 1.28 1.20 1.08 1.01
1.89 1.81 1.75 1.77 1.74 1.67 1.54 1.36 1.32 1.43 1.59 1.66 1.70 1.71 1.47 1.33 1.37 1.25 1.32 1.39 1.43 1.52 1.67 2.04 2.32 2.42 2.47 2.55 2.85 2.97 2.96 2.84 2.77 2.61 2.64 2.63 2.48 2.23 1.81 1.58 1.48 1.23 1.12
1.74 1.77 1.68 1.68 1.78 1.68 1.57 1.31 1.20 1.18 1.38 1.44 1.42 1.42 1.43 1.42 1.34 1.38 1.37 1.37 1.29 1.30 1.37 1.41 1.57 1.78 2.07 2.30 2.49 2.72 2.98 2.93 2.88 2.80 2.77 2.84 2.66 2.52 2.15 1.85 1.69 1.43 1.30
1.70 1.72 1.72 1.75 1.76 1.70 1.63 1.39 1.28 1.27 1.40 1.43 1.45 1.45 1.51 1.56 1.55 1.40 1.34 1.38 1.40 1.43 1.40 1.42 1.36 1.43 1.57 1.70 1.86 2.14 2.48 2.81 3.03 3.01 2.82 2.89 2.83 2.86 2.80 2.40 1.95 1.70 1.41
1.73 1.75 1.80 1.78 1.70 1.66 1.53 1.32 1.29 1.32 1.51 1.61 1.73 1.72 1.60 1.48 1.45 1.32 1.30 1.40 1.38 1.39 1.35 1.32 1.28 1.25 1.24 1.37 1.52 1.70 1.97 2.35 2.64 2.80 2.72 2.85 3.01 3.34 3.50 3.00 2.39 1.95 1.70